User: anonymous   Login
Location: Unspecified
(0.0000°N, 0.0000°E)
Time: 20:41:43
(UTC+00:00)
Language:

STARLINK-3740 - Orbit

View from above orbital plane
View from above orbital plane
View from above satellite
View from above satellite

Ground track
Ground track

The orbit is defined by the following mean orbital elements,

1 52265U          26145.34433866 +.00000000 +00000-0 +14876-3 0 00007
2 52265  53.2139 125.0050 0001120  72.6082 287.5033 15.08842835    09
Epoch (UTC): 25 May 2026 08:15:50
Eccentricity: 0.0001120
inclination: 53.2139°
perigee height: 539 km
apogee height: 541 km
right ascension of ascending node: 125.0050°
argument of perigee: 72.6082°
revolutions per day: 15.08842835
mean anomaly at epoch: 287.5033°

The dashed part of the orbit path shows where the satellite is in the earth's shadow,  

DLR